This is the latest recevied weather packets stored in our database for station/object KK4XZ. If no packets are shown the sender has not sent any weather packets the latest 10 day(s).
| Time | Temp. | Humidity | Pressure | Rain* | Wind** | Luminosity | Snow |
|---|---|---|---|---|---|---|---|
| 1777748722 | 13.33° C | 97% | 1009.7 hPa | 1.02 mm | - | - | - |
| 1777748116 | 13.89° C | 97% | 1010 hPa | 1.02 mm | - | - | - |
| 1777747531 | 13.89° C | 97% | 1010 hPa | 1.02 mm | - | - | - |
| 1777746926 | 13.89° C | 97% | 1010.4 hPa | 0.76 mm | - | - | - |
| 1777746322 | 13.89° C | 97% | 1010.5 hPa | 0.76 mm | - | - | - |
| 1777745717 | 13.89° C | 97% | 1010.8 hPa | 0.51 mm | - | - | - |
| 1777745132 | 13.89° C | 97% | 1010.6 hPa | 0.51 mm | - | - | - |
| 1777744528 | 13.89° C | 97% | 1010.4 hPa | 0.51 mm | - | - | - |
| 1777743923 | 13.89° C | 97% | 1010.2 hPa | 1.02 mm | - | - | - |
| 1777743318 | 13.89° C | 97% | 1010.1 hPa | 1.02 mm | - | - | - |
| 1777742733 | 13.89° C | 97% | 1010.2 hPa | 1.52 mm | - | - | - |
| 1777742128 | 13.89° C | 97% | 1010 hPa | 2.29 mm | - | - | - |
| 1777741523 | 13.89° C | 97% | 1010.2 hPa | 2.79 mm | - | - | - |
| 1777740918 | 13.89° C | 97% | 1010.9 hPa | 3.3 mm | - | - | - |
| 1777740333 | 13.89° C | 97% | 1011.1 hPa | 3.3 mm | - | - | - |
| 1777739729 | 13.89° C | 97% | 1011.5 hPa | 3.81 mm | - | - | - |
| 1777739124 | 13.89° C | 97% | 1011.5 hPa | 3.56 mm | - | - | - |
| 1777738519 | 14.44° C | 97% | 1011.8 hPa | 3.05 mm | - | - | - |
| 1777737934 | 13.89° C | 97% | 1011.5 hPa | 2.79 mm | - | - | - |
| 1777737329 | 13.89° C | 97% | 1011.5 hPa | 2.29 mm | - | - | - |
| 1777736724 | 13.89° C | 97% | 1011.6 hPa | 2.54 mm | - | - | - |
| 1777736119 | 13.89° C | 97% | 1011.1 hPa | 2.54 mm | - | - | - |
| 1777735535 | 14.44° C | 96% | 1011 hPa | 2.79 mm | - | - | - |
| 1777734930 | 14.44° C | 97% | 1011.5 hPa | 2.79 mm | - | - | - |
| 1777734325 | 14.44° C | 97% | 1012 hPa | 2.29 mm | - | - | - |
* Rain latest hour (hover to see other rain measurements)
** Current wind speed in m/s (hover to see current wind gust speed)